period_start,C,m1,H,J0,J1,J2,J3,J4,J5,JA,JB,JC,JD,JJ,JK,JN,#
2017-07-31 00:02:17,0.12,0.75,0.00,28.39,32.15,34.47,13.55,45.73,1007.34,2011.02,3206.81,2859.97,3242.06,600.11,580.11,16.80,0000 0000 0000 0000 000000
2017-07-31 00:07:18,0.11,0.75,0.00,28.41,32.16,34.49,13.53,45.75,1007.34,2011.00,3204.28,2858.60,3240.20,600.19,580.19,16.85,0000 0000 0000 0000 000000
2017-07-31 00:12:19,0.10,0.76,0.00,28.43,32.19,34.52,13.48,45.69,1007.34,2011.00,3201.69,2857.30,3238.38,600.05,580.11,16.90,0000 0000 0000 0000 000000
2017-07-31 00:17:21,0.14,0.76,0.00,28.45,32.21,34.54,13.53,45.78,1007.34,2011.00,3198.80,2855.73,3236.34,600.02,579.80,16.95,0000 0000 0000 0000 000000
2017-07-31 00:22:22,0.12,0.77,0.00,28.46,32.24,34.57,13.51,45.83,1007.34,2010.97,3195.80,2854.14,3234.12,599.96,579.95,17.00,0000 0000 0000 0000 000000
2017-07-31 00:27:23,0.11,0.77,0.00,28.47,32.26,34.59,13.50,45.73,1007.34,2010.83,3192.95,2852.65,3232.04,600.02,579.86,17.05,0000 0000 0000 0000 000000
2017-07-31 00:32:25,0.09,0.78,0.00,28.49,32.28,34.61,13.50,45.86,1007.31,2010.45,3189.87,2850.86,3229.72,599.90,579.78,17.10,0000 0000 0000 0000 000000
2017-07-31 00:37:26,0.08,0.78,0.00,28.51,32.30,34.62,13.46,45.85,1007.28,2010.09,3187.26,2849.52,3227.79,599.75,579.53,17.15,0000 0000 0000 0000 000000
2017-07-31 00:42:27,0.10,0.79,0.00,28.53,32.32,34.66,13.44,45.88,1007.27,2010.02,3184.79,2848.24,3226.01,600.00,579.76,17.20,0000 0000 0000 0000 000000
2017-07-31 00:47:29,0.11,0.80,0.00,28.55,32.35,34.68,13.45,45.84,1007.28,2010.00,3182.18,2846.80,3224.18,599.57,579.43,17.25,0000 0000 0000 0000 000000
2017-07-31 00:52:30,0.11,0.80,0.00,28.57,32.36,34.70,13.48,45.77,1007.29,2010.00,3179.53,2845.40,3222.29,599.97,579.67,17.30,0000 0000 0000 0000 000000
2017-07-31 00:57:32,0.12,0.81,0.00,28.59,32.39,34.72,13.52,45.77,1007.23,2010.00,3176.82,2843.98,3220.40,600.11,579.71,17.35,0000 0000 0000 0000 000000
2017-07-31 01:02:33,0.11,0.81,0.00,28.60,32.40,34.74,13.43,45.67,1007.12,2009.99,3174.36,2842.66,3218.56,600.09,579.57,17.40,0000 0000 0000 0000 000000
2017-07-31 01:07:34,0.11,0.82,0.00,28.62,32.42,34.76,13.45,45.80,1007.21,2009.97,3171.66,2841.27,3216.64,599.81,579.48,17.45,0000 0000 0000 0000 000000
2017-07-31 01:12:36,0.10,0.82,0.00,28.64,32.45,34.78,13.52,45.75,1007.25,2009.82,3168.94,2839.79,3214.70,599.98,579.43,17.50,0000 0000 0000 0000 000000
2017-07-31 01:17:37,0.09,0.83,0.00,28.65,32.46,34.80,13.57,45.86,1007.25,2009.60,3166.20,2838.37,3212.78,599.82,579.30,17.55,0000 0000 0000 0000 000000
2017-07-31 01:22:38,0.08,0.83,0.00,28.66,32.48,34.82,13.53,45.91,1007.15,2009.25,3163.67,2836.98,3210.92,600.01,579.43,17.60,0000 0000 0000 0000 000000
2017-07-31 01:27:39,0.11,0.84,0.00,28.67,32.50,34.83,13.50,45.85,1007.18,2009.09,3160.79,2835.58,3209.00,600.05,579.46,17.65,0000 0000 0000 0000 000000
2017-07-31 01:32:40,0.11,0.84,0.00,28.70,32.51,34.86,13.49,45.88,1007.25,2009.04,3158.05,2834.05,3206.98,599.69,579.17,17.70,0000 0000 0000 0000 000000
2017-07-31 01:37:42,0.11,0.85,0.00,28.70,32.53,34.87,13.50,45.83,1007.27,2009.00,3155.33,2832.62,3205.11,599.66,579.06,17.75,0000 0000 0000 0000 000000
2017-07-31 01:42:43,0.11,0.86,0.00,28.72,32.55,34.88,13.48,45.97,1007.22,2009.00,3152.76,2831.26,3203.24,600.08,579.42,17.80,0000 0000 0000 0000 000000
2017-07-31 01:47:44,0.12,0.86,0.00,28.74,32.56,34.90,13.55,45.90,1007.22,2009.00,3150.04,2829.72,3201.28,599.98,579.24,17.85,0000 0000 0000 0000 000000
2017-07-31 01:52:46,0.11,0.87,0.00,28.76,32.58,34.91,13.48,45.96,1007.28,2008.98,3147.25,2828.23,3199.26,599.75,579.11,17.90,0000 0000 0000 0000 000000
2017-07-31 01:57:46,0.11,0.87,0.00,28.77,32.60,34.93,13.55,45.99,1007.31,2008.97,3144.62,2826.81,3197.50,600.23,579.49,17.95,0000 0000 0000 0000 000000
2017-07-31 02:02:48,0.10,0.88,0.00,28.80,32.61,34.95,13.52,45.91,1007.26,2008.85,3142.08,2825.49,3195.68,600.11,579.32,18.00,0000 0000 0000 0000 000000
2017-07-31 02:07:49,0.07,0.88,0.00,28.81,32.63,34.96,13.56,45.94,1007.19,2008.45,3139.32,2823.98,3193.63,600.09,579.24,18.05,0000 0000 0000 0000 000000
2017-07-31 02:12:50,0.11,0.89,0.00,28.84,32.65,34.98,13.54,46.02,1007.19,2008.25,3136.53,2822.51,3191.66,600.11,579.19,18.10,0000 0000 0000 0000 000000
2017-07-31 02:17:51,0.10,0.89,0.00,28.86,32.66,34.99,13.45,46.23,1007.21,2008.06,3133.86,2821.01,3189.64,599.86,578.83,18.15,0000 0000 0000 0000 000000
2017-07-31 02:22:53,0.12,0.90,0.00,28.88,32.68,35.01,13.55,46.30,1007.19,2008.00,3130.97,2819.51,3187.61,599.94,578.89,18.20,0000 0000 0000 0000 000000
2017-07-31 02:27:54,0.12,0.91,0.00,28.90,32.70,35.03,13.53,46.27,1007.10,2008.00,3128.13,2817.97,3185.59,600.47,579.37,18.25,0000 0000 0000 0000 000000
2017-07-31 02:32:55,0.12,0.91,0.00,28.91,32.72,35.04,13.50,46.48,1006.94,2007.98,3125.26,2816.51,3183.56,599.85,578.65,18.30,0000 0000 0000 0000 000000
2017-07-31 02:37:56,0.11,0.92,0.00,28.93,32.73,35.06,13.51,46.48,1006.94,2007.94,3122.55,2815.08,3181.58,600.09,578.84,18.35,0000 0000 0000 0000 000000
2017-07-31 02:42:58,0.11,0.93,0.00,28.95,32.75,35.08,13.50,46.42,1006.88,2007.91,3120.01,2813.77,3179.78,599.72,578.55,18.40,0000 0000 0000 0000 000000
2017-07-31 02:47:59,0.08,0.93,0.00,28.97,32.77,35.10,13.50,46.46,1006.86,2007.71,3117.47,2812.47,3177.99,599.87,578.48,18.45,0000 0000 0000 0000 000000
2017-07-31 02:53:00,0.06,0.93,0.00,29.00,32.79,35.11,13.47,46.45,1006.86,2007.28,3115.27,2811.26,3176.35,600.01,578.74,18.50,0000 0000 0000 0000 000000
2017-07-31 02:58:02,0.08,0.94,0.00,29.03,32.81,35.13,13.51,46.38,1006.87,2007.08,3113.07,2810.06,3174.74,599.95,578.48,18.55,0000 0000 0000 0000 000000
2017-07-31 03:03:03,0.09,0.94,0.00,29.06,32.82,35.14,13.47,46.33,1006.85,2007.01,3110.83,2808.86,3173.17,600.07,578.44,18.60,0000 0000 0000 0000 000000
2017-07-31 03:08:04,0.09,0.95,0.00,29.08,32.85,35.16,13.51,46.23,1006.85,2007.00,3108.69,2807.80,3171.74,599.92,578.41,18.65,0000 0000 0000 0000 000000
2017-07-31 03:13:06,0.08,0.95,0.00,29.11,32.87,35.18,13.50,46.41,1006.85,2007.00,3106.85,2806.78,3170.34,600.07,578.44,18.70,0000 0000 0000 0000 000000
2017-07-31 03:18:07,0.08,0.96,0.00,29.14,32.89,35.20,13.50,46.42,1006.85,2006.99,3105.07,2805.74,3168.99,599.89,578.31,18.75,0000 0000 0000 0000 000000
2017-07-31 03:23:08,0.07,0.96,0.00,29.18,32.91,35.22,13.53,46.39,1006.84,2006.97,3103.34,2804.84,3167.72,600.25,578.46,18.80,0000 0000 0000 0000 000000
2017-07-31 03:28:10,0.07,0.96,0.00,29.22,32.94,35.24,13.49,46.63,1006.73,2006.91,3101.58,2803.86,3166.49,600.40,578.49,18.85,0000 0000 0000 0000 000000
2017-07-31 03:33:11,0.03,0.97,0.00,29.26,32.96,35.27,13.49,46.57,1006.60,2006.55,3099.84,2802.91,3165.23,599.83,577.89,18.90,0000 0000 0000 0000 000000
2017-07-31 03:38:12,0.05,0.97,0.00,29.30,32.98,35.28,13.49,46.63,1006.59,2006.10,3098.09,2801.92,3163.88,600.17,578.11,18.95,0000 0000 0000 0000 000000
2017-07-31 03:43:13,0.07,0.97,0.00,29.35,33.01,35.32,13.43,46.49,1006.56,2006.00,3096.55,2800.95,3162.69,599.86,577.62,19.00,0000 0000 0000 0000 000000
2017-07-31 03:48:15,0.07,0.97,0.00,29.38,33.04,35.34,13.46,46.50,1006.52,2006.00,3094.98,2800.05,3161.59,599.59,577.27,19.05,0000 0000 0000 0000 000000
2017-07-31 03:53:16,0.07,0.98,0.00,29.41,33.07,35.37,13.47,46.58,1006.54,2005.99,3093.68,2799.24,3160.46,599.88,577.71,19.10,0000 0000 0000 0000 000000
2017-07-31 03:58:17,0.06,0.98,0.00,29.45,33.10,35.40,13.51,46.55,1006.42,2005.98,3092.36,2798.53,3159.54,600.27,577.62,19.15,0000 0000 0000 0000 000000
2017-07-31 04:03:18,0.04,0.98,0.00,29.48,33.13,35.43,13.47,46.41,1006.39,2005.83,3090.97,2797.76,3158.52,600.10,577.49,19.20,0000 0000 0000 0000 000000
2017-07-31 04:08:19,0.02,0.99,0.00,29.52,33.16,35.45,13.48,46.68,1006.40,2005.53,3089.58,2796.98,3157.53,600.12,577.45,19.25,0000 0000 0000 0000 000000
2017-07-31 04:13:20,0.04,0.99,0.00,29.55,33.19,35.48,13.50,46.59,1006.39,2005.19,3088.20,2796.13,3156.45,600.34,577.54,19.30,0000 0000 0000 0000 000000
2017-07-31 04:18:22,0.06,0.99,0.00,29.58,33.22,35.52,13.41,46.53,1006.37,2005.03,3086.82,2795.41,3155.48,599.78,577.08,19.35,0000 0000 0000 0000 000000
2017-07-31 04:23:23,0.07,0.99,0.00,29.62,33.25,35.55,13.46,46.69,1006.36,2005.00,3085.26,2794.41,3154.29,600.36,577.47,19.40,0000 0000 0000 0000 000000
2017-07-31 04:28:25,0.07,1.00,0.00,29.65,33.28,35.59,13.48,46.49,1006.37,2005.00,3083.78,2793.57,3153.13,600.04,577.03,19.45,0000 0000 0000 0000 000000
2017-07-31 04:33:26,0.05,1.00,0.00,29.68,33.31,35.62,13.46,46.55,1006.36,2004.91,3082.45,2792.73,3152.06,600.11,577.09,19.50,0000 0000 0000 0000 000000
2017-07-31 04:38:27,0.03,1.00,0.00,29.71,33.34,35.65,13.48,46.56,1006.36,2004.67,3080.98,2791.92,3150.90,599.89,576.82,19.55,0000 0000 0000 0000 000000
2017-07-31 04:43:29,0.04,1.00,0.00,29.74,33.37,35.68,13.45,46.34,1006.36,2004.24,3079.58,2791.07,3149.84,600.13,577.07,19.60,0000 0000 0000 0000 000000
2017-07-31 04:48:30,0.06,1.01,0.00,29.76,33.41,35.70,13.44,46.33,1006.35,2004.04,3078.00,2790.19,3148.66,599.67,576.57,19.65,0000 0000 0000 0000 000000
2017-07-31 04:53:31,0.07,1.01,0.00,29.81,33.44,35.74,13.45,46.33,1006.35,2004.00,3076.50,2789.22,3147.55,600.04,576.75,19.70,0000 0000 0000 0000 000000
2017-07-31 04:58:33,0.07,1.01,0.00,29.84,33.47,35.77,13.43,46.27,1006.33,2004.00,3074.84,2788.35,3146.35,600.13,576.82,19.75,0000 0000 0000 0000 000000
2017-07-31 05:03:34,0.07,1.02,0.00,29.87,33.50,35.80,13.48,46.35,1006.29,2004.00,3073.35,2787.51,3145.27,600.04,576.65,19.81,0000 0000 0000 0000 000000
2017-07-31 05:08:35,0.05,1.02,0.00,29.90,33.53,35.83,13.40,46.34,1006.15,2003.89,3071.87,2786.66,3144.03,599.97,576.44,19.86,0000 0000 0000 0000 000000
2017-07-31 05:13:36,-0.00,1.02,0.00,29.93,33.56,35.87,13.41,46.38,1005.96,2003.31,3070.57,2785.80,3142.85,599.76,576.15,19.91,0000 0000 0000 0000 000000
2017-07-31 05:18:37,0.05,1.02,0.00,29.95,33.60,35.91,13.39,46.21,1005.91,2003.04,3069.16,2784.94,3141.70,599.79,576.18,19.96,0000 0000 0000 0000 000000
2017-07-31 05:23:38,0.07,1.03,0.00,29.92,33.62,35.96,13.46,46.30,1005.88,2003.00,3067.74,2784.09,3140.70,600.02,576.29,20.01,0000 0000 0000 0000 000000
2017-07-31 05:28:39,0.08,1.03,0.00,29.91,33.66,35.98,13.47,46.46,1005.89,2003.00,3066.16,2783.26,3139.57,600.23,576.52,20.06,0000 0000 0000 0000 000000
2017-07-31 05:33:40,0.07,1.03,0.00,29.88,33.68,36.02,13.48,47.02,1005.88,2003.00,3064.50,2782.22,3138.38,599.95,576.30,20.11,0000 0000 0000 0000 000000
2017-07-31 05:38:41,0.07,1.04,0.00,29.89,33.70,36.03,13.48,46.81,1005.87,2002.96,3062.79,2781.28,3137.08,600.19,576.51,20.16,0000 0000 0000 0000 000000
2017-07-31 05:43:42,0.07,1.04,0.00,29.90,33.72,36.05,13.39,46.64,1005.87,2002.89,3060.92,2780.29,3135.74,599.62,576.04,20.21,0000 0000 0000 0000 000000
2017-07-31 05:48:44,0.03,1.04,0.00,29.90,33.75,36.07,13.52,46.71,1005.88,2002.50,3059.48,2779.44,3134.71,600.46,576.75,20.26,0000 0000 0000 0000 000000
2017-07-31 05:53:45,0.05,1.05,0.00,29.90,33.77,36.08,13.42,46.51,1005.87,2002.09,3057.76,2778.43,3133.45,599.87,576.19,20.31,0000 0000 0000 0000 000000
2017-07-31 05:58:46,0.06,1.05,0.00,29.92,33.79,36.09,13.44,46.51,1005.87,2002.00,3056.15,2777.52,3132.25,600.18,576.43,20.36,0000 0000 0000 0000 000000
2017-07-31 06:03:48,0.07,1.05,0.00,29.95,33.81,36.10,13.49,46.69,1005.87,2002.00,3054.48,2776.61,3130.97,600.19,576.36,20.41,0000 0000 0000 0000 000000
2017-07-31 06:08:49,0.07,1.06,0.00,29.97,33.82,36.11,13.46,46.78,1005.87,2002.00,3052.86,2775.77,3129.79,600.18,576.29,20.46,0000 0000 0000 0000 000000
2017-07-31 06:13:50,0.06,1.06,0.00,30.01,33.85,36.11,13.49,47.06,1005.86,2001.98,3051.52,2774.91,3128.67,600.02,576.09,20.51,0000 0000 0000 0000 000000
2017-07-31 06:18:52,0.07,1.06,0.00,30.06,33.87,36.12,13.38,46.98,1005.85,2001.91,3049.95,2774.00,3127.54,599.83,575.84,20.56,0000 0000 0000 0000 000000
2017-07-31 06:23:53,0.06,1.07,0.00,30.11,33.89,36.14,13.44,46.69,1005.86,2001.75,3047.99,2772.91,3126.21,600.03,575.92,20.61,0000 0000 0000 0000 000000
2017-07-31 06:28:54,0.08,1.07,0.00,30.15,33.91,36.16,13.48,46.68,1005.78,2001.45,3045.99,2771.82,3124.77,600.25,576.02,20.66,0000 0000 0000 0000 000000
2017-07-31 06:33:56,0.09,1.08,0.00,30.19,33.93,36.18,13.40,46.60,1005.67,2001.41,3043.64,2770.63,3123.26,599.89,575.66,20.71,0000 0000 0000 0000 000000
2017-07-31 06:38:57,0.08,1.08,0.00,30.24,33.96,36.20,13.42,46.59,1005.48,2001.13,3041.32,2769.41,3121.54,600.00,575.46,20.76,0000 0000 0000 0000 000000
2017-07-31 06:43:58,0.11,1.09,0.00,30.29,33.98,36.23,13.43,46.83,1005.40,2001.03,3038.85,2768.03,3119.70,599.79,575.13,20.81,0000 0000 0000 0000 000000
2017-07-31 06:49:00,0.13,1.09,0.00,30.33,34.01,36.25,13.41,46.48,1005.41,2001.00,3036.15,2766.59,3117.84,600.06,575.25,20.86,0000 0000 0000 0000 000000
2017-07-31 06:54:01,0.11,1.10,0.00,30.38,34.04,36.28,13.36,46.86,1005.40,2001.00,3033.61,2765.19,3115.93,599.82,575.00,20.91,0000 0000 0000 0000 000000
2017-07-31 06:59:02,0.14,1.10,0.00,30.42,34.06,36.32,13.46,46.66,1005.41,2001.00,3030.69,2763.65,3113.88,599.57,574.59,20.96,0000 0000 0000 0000 000000
2017-07-31 07:04:03,0.13,1.11,0.00,30.46,34.09,36.35,13.40,46.54,1005.40,2000.96,3027.88,2762.05,3111.72,600.14,575.10,21.01,0000 0000 0000 0000 000000
2017-07-31 07:09:04,0.08,1.12,0.00,30.51,34.12,36.38,13.35,46.79,1005.40,2000.68,3025.22,2760.61,3109.70,599.67,574.64,21.06,0000 0000 0000 0000 000000
2017-07-31 07:14:05,0.13,1.12,0.00,30.55,34.15,36.41,13.41,46.93,1005.40,2000.32,3021.95,2758.86,3107.48,600.30,574.96,21.11,0000 0000 0000 0000 000000
2017-07-31 07:19:06,0.14,1.13,0.00,30.58,34.18,36.45,13.35,46.86,1005.40,2000.06,3018.33,2756.94,3104.87,599.89,574.51,21.16,0000 0000 0000 0000 000000
2017-07-31 07:24:08,0.17,1.14,0.00,30.63,34.21,36.48,13.41,46.62,1005.40,2000.01,3014.58,2754.93,3102.21,600.11,574.75,21.21,0000 0000 0000 0000 000000
2017-07-31 07:29:09,0.15,1.15,0.00,30.67,34.24,36.52,13.31,46.44,1005.39,2000.00,3011.24,2753.13,3099.81,599.61,574.12,21.26,0000 0000 0000 0000 000000
2017-07-31 07:34:10,0.17,1.16,0.00,30.71,34.28,36.55,13.49,46.72,1005.39,2000.00,3007.37,2751.18,3097.13,600.30,574.77,21.31,0000 0000 0000 0000 000000
2017-07-31 07:39:11,0.20,1.16,0.00,30.75,34.31,36.59,13.38,46.76,1005.39,1999.98,3003.21,2749.04,3094.08,599.98,574.44,21.36,0000 0000 0000 0000 000000
2017-07-31 07:44:13,0.21,1.18,0.00,30.77,34.34,36.62,13.43,47.09,1005.40,1999.89,2998.45,2746.51,3090.70,599.98,574.32,21.41,0000 0000 0000 0000 000000
2017-07-31 07:49:14,0.20,1.19,0.00,30.81,34.37,36.66,13.34,46.73,1005.39,1999.70,2993.50,2743.98,3087.26,599.99,574.33,21.46,0000 0000 0000 0000 000000
2017-07-31 07:54:15,0.20,1.20,0.00,30.84,34.41,36.69,13.37,46.47,1005.39,1999.21,2988.38,2741.30,3083.75,600.31,574.42,21.51,0000 0000 0000 0000 000000
2017-07-31 07:59:17,0.22,1.21,0.00,30.88,34.44,36.72,13.40,46.67,1005.39,1999.05,2983.17,2738.59,3080.08,599.96,574.18,21.56,0000 0000 0000 0000 000000
2017-07-31 08:04:18,0.20,1.22,0.00,30.90,34.48,36.76,13.37,46.56,1005.39,1999.03,2978.35,2736.16,3076.93,600.16,574.29,21.61,0000 0000 0000 0000 000000
2017-07-31 08:09:19,0.12,1.23,0.00,30.92,34.51,36.79,13.47,46.50,1005.39,1999.04,2975.49,2734.61,3074.96,600.20,574.19,21.66,0000 0000 0000 0000 000000
2017-07-31 08:14:21,0.09,1.23,0.00,30.94,34.54,36.81,13.40,46.70,1005.39,1999.00,2973.66,2733.51,3073.52,600.17,574.28,21.71,0000 0000 0000 0000 000000
2017-07-31 08:19:22,0.08,1.24,0.00,30.97,34.56,36.85,13.39,46.65,1005.39,1999.00,2971.84,2732.46,3072.16,600.21,574.20,21.76,0000 0000 0000 0000 000000
2017-07-31 08:24:23,0.06,1.24,0.00,31.00,34.59,36.89,13.40,46.74,1005.39,1998.88,2970.18,2731.41,3070.84,599.98,573.93,21.81,0000 0000 0000 0000 000000
2017-07-31 08:29:24,0.05,1.24,0.00,31.02,34.62,36.92,13.40,46.61,1005.39,1998.51,2968.57,2730.48,3069.66,600.03,573.93,21.86,0000 0000 0000 0000 000000
2017-07-31 08:34:25,0.04,1.24,0.00,31.04,34.65,36.95,13.46,46.56,1005.39,1998.08,2966.82,2729.41,3068.41,600.38,574.18,21.91,0000 0000 0000 0000 000000
2017-07-31 08:39:26,0.06,1.25,0.00,31.05,34.68,36.97,13.32,46.71,1005.39,1998.02,2965.32,2728.61,3067.28,599.83,573.69,21.96,0000 0000 0000 0000 000000
2017-07-31 08:44:28,0.08,1.25,0.00,31.07,34.71,37.01,13.43,46.94,1005.39,1998.00,2963.75,2727.58,3066.00,599.85,573.66,22.01,0000 0000 0000 0000 000000
2017-07-31 08:49:29,0.07,1.25,0.00,31.10,34.74,37.05,13.35,46.73,1005.39,1998.00,2962.15,2726.68,3064.79,599.87,573.65,22.06,0000 0000 0000 0000 000000
2017-07-31 08:54:30,0.08,1.26,0.00,31.10,34.76,37.06,13.34,46.62,1005.39,1997.99,2960.61,2725.73,3063.67,599.69,573.42,22.11,0000 0000 0000 0000 000000
2017-07-31 08:59:31,0.06,1.26,0.00,31.12,34.79,37.09,13.45,46.79,1005.39,1997.95,2958.97,2724.86,3062.48,600.39,574.20,22.16,0000 0000 0000 0000 000000
2017-07-31 09:04:33,0.04,1.27,0.00,31.13,34.81,37.12,13.34,46.61,1005.39,1997.72,2957.46,2724.01,3061.36,600.10,573.81,22.21,0000 0000 0000 0000 000000
2017-07-31 09:09:34,0.04,1.27,0.00,31.15,34.84,37.15,13.35,46.63,1005.39,1997.39,2956.10,2723.13,3060.37,599.69,573.43,22.26,0000 0000 0000 0000 000000
2017-07-31 09:14:36,0.05,1.27,0.00,31.15,34.86,37.16,13.34,46.57,1005.39,1997.11,2954.62,2722.32,3059.30,599.71,573.60,22.31,0000 0000 0000 0000 000000
2017-07-31 09:19:37,0.06,1.27,0.00,31.15,34.88,37.19,13.36,46.59,1005.36,1997.03,2953.31,2721.54,3058.23,600.09,573.64,22.36,0000 0000 0000 0000 000000
2017-07-31 09:24:38,0.07,1.28,0.00,31.17,34.91,37.22,13.39,46.51,1005.29,1997.00,2951.87,2720.72,3057.15,600.14,573.71,22.41,0000 0000 0000 0000 000000
2017-07-31 09:29:39,0.06,1.28,0.00,31.18,34.93,37.24,13.36,46.56,1005.30,1997.00,2950.46,2719.91,3056.11,599.73,573.33,22.46,0000 0000 0000 0000 000000
2017-07-31 09:34:41,0.07,1.28,0.00,31.20,34.95,37.25,13.36,46.69,1005.22,1996.99,2948.92,2718.98,3055.00,600.15,573.72,22.51,0000 0000 0000 0000 000000
2017-07-31 09:39:42,0.08,1.29,0.00,31.20,34.97,37.27,13.36,46.46,1005.04,1996.98,2947.37,2718.04,3053.84,599.72,573.14,22.56,0000 0000 0000 0000 000000
2017-07-31 09:44:43,0.07,1.29,0.00,31.20,34.99,37.30,13.40,46.45,1004.95,1996.93,2945.79,2717.17,3052.70,600.08,573.40,22.61,0000 0000 0000 0000 000000
2017-07-31 09:49:45,0.00,1.29,0.00,31.22,35.01,37.32,13.36,46.52,1004.92,1996.45,2944.44,2716.33,3051.51,600.13,573.49,22.66,0000 0000 0000 0000 000000
2017-07-31 09:54:46,0.06,1.29,0.00,31.24,35.03,37.34,13.39,46.85,1004.91,1996.07,2942.86,2715.41,3050.36,600.23,573.50,22.71,0000 0000 0000 0000 000000
2017-07-31 09:59:47,0.07,1.30,0.00,31.24,35.05,37.36,13.40,47.11,1004.91,1996.01,2941.33,2714.49,3049.19,600.20,573.56,22.76,0000 0000 0000 0000 000000
2017-07-31 10:04:49,0.06,1.30,0.00,31.25,35.07,37.38,13.36,47.07,1004.90,1996.00,2939.78,2713.67,3048.09,599.73,572.95,22.81,0000 0000 0000 0000 000000
2017-07-31 10:09:50,0.06,1.31,0.00,31.25,35.09,37.40,13.29,46.84,1004.90,1996.00,2938.42,2712.89,3047.06,599.51,572.73,22.86,0000 0000 0000 0000 000000
2017-07-31 10:14:51,0.08,1.31,0.00,31.25,35.10,37.41,13.37,46.74,1004.90,1996.00,2936.76,2712.02,3045.90,599.80,573.02,22.91,0000 0000 0000 0000 000000
2017-07-31 10:19:53,0.07,1.31,0.00,31.26,35.12,37.43,13.42,46.92,1004.89,1995.99,2935.29,2711.13,3044.81,600.15,573.32,22.96,0000 0000 0000 0000 000000
2017-07-31 10:24:54,0.08,1.32,0.00,31.27,35.13,37.44,13.33,46.74,1004.83,1995.99,2933.65,2710.22,3043.72,599.35,572.48,23.01,0000 0000 0000 0000 000000
2017-07-31 10:29:55,0.07,1.32,0.00,31.27,35.15,37.46,13.34,46.88,1004.82,1995.98,2932.30,2709.41,3042.57,599.84,573.00,23.06,0000 0000 0000 0000 000000
2017-07-31 10:34:56,0.08,1.32,0.00,31.27,35.16,37.48,13.39,46.88,1004.80,1995.97,2930.45,2708.35,3041.36,600.01,572.98,23.12,0000 0000 0000 0000 000000
2017-07-31 10:39:58,0.07,1.33,0.00,31.27,35.18,37.48,13.43,46.85,1004.70,1995.93,2928.82,2707.48,3040.18,599.96,572.96,23.17,0000 0000 0000 0000 000000
2017-07-31 10:44:59,0.09,1.33,0.00,31.27,35.19,37.50,13.32,46.81,1004.67,1995.96,2927.01,2706.52,3039.02,599.93,572.94,23.22,0000 0000 0000 0000 000000
2017-07-31 10:50:00,0.05,1.34,0.00,31.27,35.20,37.51,13.37,46.96,1004.56,1995.91,2925.68,2705.83,3037.97,599.90,572.99,23.27,0000 0000 0000 0000 000000
2017-07-31 10:55:02,0.03,1.34,0.00,31.28,35.21,37.53,13.35,46.86,1004.51,1995.64,2924.36,2704.96,3036.89,599.72,572.65,23.32,0000 0000 0000 0000 000000
2017-07-31 11:00:03,0.04,1.34,0.00,31.28,35.22,37.54,13.43,46.86,1004.52,1995.34,2922.90,2704.13,3035.85,600.50,573.38,23.37,0000 0000 0000 0000 000000
2017-07-31 11:05:04,0.06,1.34,0.00,31.28,35.24,37.55,13.41,46.90,1004.44,1995.06,2921.54,2703.35,3034.69,600.32,573.12,23.42,0000 0000 0000 0000 000000
2017-07-31 11:10:06,0.07,1.35,0.00,31.29,35.25,37.57,13.41,46.77,1004.42,1995.02,2920.09,2702.51,3033.66,599.97,572.77,23.47,0000 0000 0000 0000 000000
2017-07-31 11:15:07,0.06,1.35,0.00,31.30,35.25,37.58,13.39,46.87,1004.42,1995.00,2918.65,2701.74,3032.62,599.77,572.71,23.52,0000 0000 0000 0000 000000
2017-07-31 11:20:08,0.06,1.35,0.00,31.29,35.27,37.58,13.48,47.02,1004.41,1995.00,2917.27,2700.93,3031.59,600.25,573.08,23.57,0000 0000 0000 0000 000000
2017-07-31 11:25:09,0.07,1.36,0.00,31.28,35.27,37.59,13.41,46.78,1004.41,1995.00,2915.86,2700.09,3030.54,600.42,573.31,23.62,0000 0000 0000 0000 000000
2017-07-31 11:30:10,0.07,1.36,0.00,31.27,35.28,37.60,13.33,46.77,1004.42,1995.00,2914.49,2699.36,3029.54,599.98,572.88,23.67,0000 0000 0000 0000 000000
2017-07-31 11:35:11,0.07,1.36,0.00,31.27,35.30,37.62,13.40,46.83,1004.41,1994.99,2912.89,2698.56,3028.50,600.18,572.98,23.72,0000 0000 0000 0000 000000
2017-07-31 11:40:13,0.06,1.37,0.00,31.27,35.30,37.62,13.36,46.79,1004.41,1994.99,2911.48,2697.78,3027.51,599.84,572.72,23.77,0000 0000 0000 0000 000000
2017-07-31 11:45:14,0.17,1.37,0.00,31.27,35.30,37.62,13.35,46.70,1004.41,1994.99,2909.53,2696.14,3025.70,599.87,572.75,23.82,0000 0000 0000 0000 000000
2017-07-31 11:50:15,0.25,1.39,0.00,31.27,35.32,37.63,13.40,46.70,1004.41,1994.99,2905.85,2691.72,3021.56,600.15,573.02,23.87,0000 0000 0000 0000 000000
2017-07-31 11:55:16,0.07,1.39,0.00,31.27,35.32,37.64,13.45,46.69,1004.41,1994.97,2904.21,2690.70,3020.42,599.95,572.92,23.92,0000 0000 0000 0000 000000
2017-07-31 12:00:18,0.15,1.40,0.00,31.27,35.32,37.64,13.42,46.96,1004.41,1994.98,2901.98,2689.26,3018.23,599.97,572.85,23.97,0000 0000 0000 0000 000000
2017-07-31 12:05:19,0.01,1.40,0.00,31.27,35.33,37.65,13.40,46.77,1004.41,1994.97,2900.40,2688.75,3017.19,600.05,572.83,24.02,0000 0000 0000 0000 000000
2017-07-31 12:10:20,0.07,1.40,0.00,31.27,35.33,37.66,13.41,46.61,1004.41,1994.98,2899.41,2688.77,3016.76,600.01,572.89,24.07,0000 0000 0000 0000 000000
2017-07-31 12:15:22,0.06,1.41,0.00,31.26,35.35,37.66,13.37,46.83,1004.36,1994.95,2897.98,2687.86,3015.62,600.23,572.97,24.12,0000 0000 0000 0000 000000
2017-07-31 12:20:23,0.41,1.42,0.00,31.25,35.35,37.67,13.42,46.83,1004.32,1994.96,2893.70,2683.80,3010.82,600.15,573.01,24.17,0000 0000 0000 0000 000000
2017-07-31 12:25:24,0.09,1.43,0.00,31.25,35.35,37.67,13.36,46.83,1004.17,1994.96,2890.56,2681.01,3007.72,600.00,572.74,24.22,0000 0000 0000 0000 000000
2017-07-31 12:30:25,0.09,1.44,0.00,31.25,35.35,37.68,13.39,46.85,1004.01,1994.97,2888.74,2680.06,3006.56,600.17,572.93,24.27,0000 0000 0000 0000 000000
2017-07-31 12:35:27,0.09,1.44,0.00,31.25,35.35,37.68,13.40,46.72,1003.94,1994.99,2886.80,2678.97,3005.25,599.89,572.59,24.32,0000 0000 0000 0000 000000
2017-07-31 12:40:28,0.14,1.45,0.00,31.25,35.35,37.69,13.37,46.84,1003.93,1994.99,2884.16,2677.50,3003.47,599.68,572.34,24.37,0000 0000 0000 0000 000000
2017-07-31 12:45:29,0.16,1.46,0.00,31.25,35.35,37.68,13.34,46.65,1003.92,1994.99,2881.09,2675.78,3001.35,599.69,572.35,24.42,0000 0000 0000 0000 000000
2017-07-31 12:50:30,0.17,1.46,0.00,31.23,35.35,37.69,13.39,46.92,1003.92,1994.99,2877.98,2673.87,2998.96,600.30,572.96,24.47,0000 0000 0000 0000 000000
2017-07-31 12:55:31,0.16,1.47,0.00,31.23,35.35,37.69,13.37,46.91,1003.88,1994.99,2874.83,2671.97,2996.59,600.24,572.91,24.52,0000 0000 0000 0000 000000